Location: California Institute of Technology
(34.1357°N, 118.1263°W)
Time: 11:18:10
(UTC-08:00)

N. Korean satellite - Visible Passes

Search period start: 21 February 2018 00:00
Search period end: 03 March 2018 00:00
Orbit: 459 x 514 km, 97.2° (Epoch: 21 February)

Date Brightness Start Highest point End Pass type
(mag) Time Alt. Az. Time Alt. Az. Time Alt. Az.
21 Feb 10.4 18:57:16 10° WSW 18:58:00 10° W 18:58:44 10° W visible
22 Feb 9.4 18:31:22 10° SSW 18:34:07 22° W 18:36:53 10° NW visible
23 Feb 8.8 06:01:16 10° NNE 06:04:39 33° E 06:08:03 10° SSE visible
23 Feb 7.6 18:06:58 10° S 18:10:18 50° W 18:13:41 10° NNW visible
24 Feb 10.1 05:38:24 10° NE 05:40:49 17° E 05:43:16 10° SE visible
25 Feb 10.4 18:55:25 10° WSW 18:56:28 11° W 18:57:30 10° WNW visible
26 Feb 9.3 18:29:45 10° SSW 18:32:34 23° W 18:35:25 10° NW visible
28 Feb 10.1 05:36:54 10° NE 05:39:18 16° E 05:41:41 10° SE visible
01 Mar 10.3 18:53:34 10° WSW 18:54:52 12° W 18:56:11 10° WNW visible
02 Mar 9.3 18:28:04 10° SSW 18:30:58 24° W 18:33:54 10° NW visible
